[[{"header":{"parameterUnit":"m.s-1","parameterCategory":2,"la1":30.2991,"la2":30.254,"lo1":-89.0895,"lo2":-89.0444,"dy":0.0017,"dx":0.0017,"nx":28,"ny":28,"refTime":"2025-09-11T03:00:00:Z","depth":"0","parameterNumber":2,"parameterNumberName":"U-component_of_CURRENTS"},"data":[0,0,0,0,0,0,0,0,0,0,0,0,0,0,0,0,0,0,0,0,0,0,0,0,0,0,0,0,0,0,0,0,0,0,0,0,0,0,0,0,0,0,0,0,0,0,0,0,0,0,0,0,0,0,0,0,0,0,0.1579,0.158,0,0.1581,0.1581,0.1581,0.1577,0.1577,0.1577,0.1577,0.1576,0.1576,0.1576,0,0,0,0,0,0,0,0,0,0,0,0,0,0.1597,0.1596,0.1579,0.158,0.158,0.1581,0.1581,0.1581,0.1577,0.1577,0.1577,0.1577,0.1576,0.1576,0.1576,0,0,0,0,0,0,0,0,0,0,0,0,0,0.1592,0.1596,0.1579,0.1578,0.1578,0.1581,0.1581,0.1581,0.1577,0.1577,0.1577,0.1577,0.1576,0.1576,0.1576,0.1578,0,0,0.1577,0.1577,0,0,0,0,0,0,0,0,0.1592,0.1591,0.1579,0.1579,0.1579,0.158,0.1587,0.158,0.1577,0.1577,0.1577,0.1577,0.1578,0.1578,0.1577,0.1578,0.1578,0.1577,0.1577,0.1577,0.1577,0,0,0,0,0,0,0,0.1592,0.1591,0.1579,0.1579,0.1579,0.1586,0.1585,0.1586,0.1577,0.1577,0.1577,0.1578,0.1578,0.1577,0.1577,0.1578,0.1577,0.1577,0.1577,0.1577,0.1585,0.1585,0,0,0,0,0,0,0.1593,0.1591,0.1579,0.1579,0.1586,0.1586,0.1585,0.1579,0.1577,0.1577,0.1578,0.1578,0.1577,0.1577,0.1577,0.1583,0.1577,0.1577,0.1577,0.1585,0.1585,0.1586,0,0,0,0,0,0,0.1593,0.1591,0.1579,0.1587,0.1586,0.1586,0.1579,0.1579,0.1579,0.1578,0.1578,0.1579,0.1577,0.1577,0.1577,0.1583,0.1577,0.1577,0.1585,0.1585,0.1585,0.1593,0,0,0,0,0,0,0.1593,0.1591,0.1588,0.1586,0.1585,0.1583,0.1579,0.1579,0.158,0.158,0.1579,0.1579,0.1577,0.1577,0.1577,0.1583,0.1577,0.1585,0.1585,0.1585,0.1592,0.1593,0.1594,0,0,0,0,0,0.1594,0.1588,0.1588,0.1586,0.158,0.1584,0.1584,0.1583,0.1581,0.1583,0.1579,0.1579,0.158,0.1577,0.1577,0.1583,0.1584,0.1585,0.1585,0.1592,0.1593,0.1594,0,0,0,0,0,0,0.1592,0.1587,0.1587,0.1579,0.1584,0.1583,0.1586,0.1584,0.1583,0.1583,0.1579,0.1579,0.1581,0.1581,0.1579,0.1587,0.1583,0.1583,0.1588,0.1589,0.159,0.1597,0.1577,0,0,0,0,0,0.1591,0.1585,0.1587,0.1581,0.1586,0.1586,0.1588,0.1588,0.1587,0.1586,0.1584,0.1584,0.1583,0.1585,0.1584,0.1589,0.161,0.1594,0.1595,0.1595,0.1601,0.1624,0.1628,0.1587,0.1587,0.1587,0,0,0.1587,0.1585,0.158,0.158,0.1584,0.1593,0.1587,0.1591,0.1595,0.1587,0.159,0.1585,0.1584,0.1588,0.1589,0.1589,0.1624,0.1596,0.1597,0.1602,0.1625,0.163,0.1633,0.1587,0.1587,0.1587,0,0,0.1583,0.1579,0.1577,0.1585,0.1593,0.1596,0.1598,0.1601,0.1601,0.1602,0.1597,0.1594,0.1595,0.1595,0.1595,0.1601,0.1625,0.1604,0.1618,0.164,0.1644,0.1647,0.1704,0.1713,0.1608,0.1608,0.1608,0,0.1576,0.1581,0.1578,0.1587,0.1601,0.1599,0.1614,0.161,0.161,0.1621,0.1604,0.1612,0.1597,0.1614,0.1606,0.1603,0.1635,0.1612,0.1642,0.1645,0.1649,0.1707,0.1716,0.1608,0.1608,0.1608,0.1608,0,0.1579,0.1588,0.1592,0.1603,0.1614,0.1627,0.1632,0.1638,0.1636,0.1639,0.165,0.1629,0.1645,0.1628,0.1613,0.1634,0.1658,0.1638,0.164,0.1654,0.1714,0.1723,0.1609,0.1608,0.1608,0.1608,0,0,0.1556,0.1586,0.1589,0.1614,0.163,0.1645,0.1655,0.1677,0.1707,0.1683,0.1723,0.1683,0.1686,0.1685,0.1671,0.1668,0.1708,0.1662,0.1663,0.1722,0.1795,0.1947,0.1972,0.1697,0.1698,0.1699,0.1837,0,0.1564,0.1592,0.1603,0.1642,0.1669,0.1683,0.1704,0.1722,0.1734,0.1769,0.1744,0.1771,0.1707,0.1727,0.1709,0.1719,0.173,0.1675,0.177,0.1774,0.1909,0.1986,0.1954,0.2086,0.1846,0.1848,0.1849,0,0.1577,0.1597,0.1634,0.1695,0.1709,0.1727,0.1789,0.1806,0.1843,0.1863,0.1876,0.1874,0.1881,0.1816,0.1837,0.1812,0.1803,0.1792,0.1797,0.1942,0.1944,0.2028,0.2112,0.2056,0.1864,0.1862,0.1861,0,0.1594,0.1631,0.1667,0.1683,0.1735,0.1762,0.179,0.1835,0.1886,0.1935,0.1995,0.1988,0.2034,0.199,0.1986,0.1915,0.203,0.1933,0.2062,0.2074,0.2069,0.208,0.2111,0.1943,0.1943,0.1942,0.1942,0,0.1616,0.1647,0.1679,0.1704,0.1764,0.1789,0.1867,0.1899,0.1977,0.2043,0.2051,0.2124,0.2077,0.2137,0.2065,0.2154,0.211,0.2103,0.2129,0.2077,0.2086,0.2055,0.1999,0.1947,0.1946,0.1945,0.1944,0,0.163,0.165,0.1703,0.1756,0.1779,0.1821,0.1924,0.1972,0.2057,0.215,0.2179,0.2277,0.2369,0.2366,0.2362,0.2324,0.2301,0.237,0.2348,0.2371,0.2417,0.2363,0.2361,0.2277,0.2517,0.2522,0.2526,0,0.1632,0.1658,0.1736,0.1766,0.1789,0.1859,0.1903,0.1998,0.2056,0.2229,0.2272,0.2442,0.2526,0.2676,0.2666,0.2682,0.2507,0.2665,0.2504,0.247,0.2425,0.227,0.2182,0.2493,0.2496,0.2499,0.2501,0,0.1637,0.1669,0.1716,0.1775,0.1823,0.1884,0.1954,0.2024,0.2122,0.2232,0.2372,0.2471,0.2692,0.2757,0.2887,0.2851,0.2575,0.2728,0.266,0.2417,0.2275,0.2191,0.2375,0.2526,0.2524,0.2522,0.252,0.2519,0.1639,0.1667,0.1723,0.1778,0.1825,0.1863,0.1909,0.1986,0.2093,0.2227,0.2366,0.2518,0.2727,0.2924,0.291,0.2931,0.2785,0.2797,0.274,0.259,0.2492,0.2793,0.3001,0.3001,0.3002,0.3002,0.3002,0,0.1611,0.165,0.1709,0.1765,0.1787,0.1826,0.1903,0.1939,0.2019,0.2188,0.2322,0.2563,0.2732,0.2866,0.2993,0.2915,0.2688,0.2837,0.253,0.2439,0.2693,0.2678,0.2865,0.2865,0.2865,0.2865,0.2865,0.2865,0.16,0.164,0.1672,0.17,0.1729,0.1749,0.1778,0.1839,0.1958,0.212,0.2269,0.2421,0.2706,0.296,0.2972,0.2883,0.2576,0.2547,0.2452,0.2575,0.2561,0.2548,0.252,0.2671,0.2671,0.2081,0.2077,0.2074]},{"header":{"parameterUnit":"m.s-1","parameterCategory":2,"la1":30.2991,"la2":30.254,"lo1":-89.0895,"lo2":-89.0444,"dy":0.0017,"dx":0.0017,"nx":28,"ny":28,"refTime":"2025-09-11T03:00:00:Z","depth":"0","parameterNumber":3,"parameterNumberName":"V-component_of_CURRENTS"},"data":[0,0,0,0,0,0,0,0,0,0,0,0,0,0,0,0,0,0,0,0,0,0,0,0,0,0,0,0,0,0,0,0,0,0,0,0,0,0,0,0,0,0,0,0,0,0,0,0,0,0,0,0,0,0,0,0,0,0,-0.0768,-0.0769,0,-0.0831,-0.0832,-0.0834,-0.0906,-0.0907,-0.0907,-0.0908,-0.1118,-0.1123,-0.1128,0,0,0,0,0,0,0,0,0,0,0,0,0,-0.0801,-0.08,-0.0768,-0.0769,-0.0769,-0.0831,-0.0832,-0.0834,-0.0906,-0.0907,-0.0907,-0.0908,-0.1116,-0.1122,-0.1128,0,0,0,0,0,0,0,0,0,0,0,0,0,-0.0823,-0.0799,-0.0768,-0.0808,-0.0812,-0.0831,-0.0832,-0.0834,-0.0906,-0.0907,-0.0908,-0.0908,-0.1114,-0.1121,-0.1129,-0.116,0,0,-0.1152,-0.1156,0,0,0,0,0,0,0,0,-0.0821,-0.0822,-0.0802,-0.0805,-0.0809,-0.0856,-0.092,-0.0948,-0.0906,-0.0877,-0.0908,-0.0909,-0.1039,-0.1053,-0.107,-0.117,-0.1179,-0.1153,-0.1158,-0.1161,-0.1163,0,0,0,0,0,0,0,-0.082,-0.082,-0.0799,-0.0802,-0.0806,-0.0853,-0.0857,-0.0926,-0.096,-0.0879,-0.0883,-0.088,-0.1044,-0.1062,-0.1076,-0.1182,-0.1153,-0.116,-0.1164,-0.1167,-0.1314,-0.1314,0,0,0,0,0,0,-0.0794,-0.0818,-0.0797,-0.0801,-0.0811,-0.0851,-0.0855,-0.0845,-0.0956,-0.0971,-0.0879,-0.0883,-0.1049,-0.1066,-0.1083,-0.1139,-0.1161,-0.1168,-0.1172,-0.1315,-0.1314,-0.1314,0,0,0,0,0,0,-0.0794,-0.0791,-0.0795,-0.0807,-0.081,-0.0848,-0.0837,-0.0846,-0.0861,-0.0954,-0.0973,-0.0883,-0.105,-0.1073,-0.1134,-0.1148,-0.1171,-0.1178,-0.1316,-0.1315,-0.1314,-0.1244,0,0,0,0,0,0,-0.0795,-0.0791,-0.0786,-0.0804,-0.0808,-0.08,-0.0836,-0.0847,-0.0855,-0.0861,-0.0963,-0.0984,-0.1052,-0.1122,-0.1142,-0.1159,-0.1184,-0.1317,-0.1315,-0.1314,-0.1247,-0.124,-0.1235,0,0,0,0,0,-0.0796,-0.0785,-0.0786,-0.0784,-0.0796,-0.0799,-0.0805,-0.0841,-0.0854,-0.0858,-0.092,-0.098,-0.1128,-0.1128,-0.1151,-0.117,-0.1317,-0.1316,-0.1314,-0.125,-0.1242,-0.1235,0,0,0,0,0,0,-0.0809,-0.0791,-0.0793,-0.078,-0.0783,-0.0808,-0.0817,-0.0829,-0.0878,-0.089,-0.0976,-0.1001,-0.1058,-0.1114,-0.1111,-0.1204,-0.1231,-0.1234,-0.1174,-0.1168,-0.1162,-0.1142,-0.1191,0,0,0,0,0,-0.0801,-0.0783,-0.0779,-0.077,-0.0766,-0.0786,-0.0794,-0.0808,-0.0845,-0.0867,-0.093,-0.1002,-0.107,-0.1116,-0.1178,-0.1235,-0.1265,-0.1259,-0.1253,-0.1247,-0.1244,-0.1297,-0.1296,-0.1309,-0.1309,-0.1309,0,0,-0.0807,-0.0791,-0.0786,-0.077,-0.0778,-0.0768,-0.0795,-0.0795,-0.0798,-0.0884,-0.092,-0.0983,-0.1075,-0.1135,-0.1166,-0.1187,-0.1252,-0.1246,-0.1241,-0.1241,-0.1295,-0.1294,-0.1293,-0.1308,-0.1308,-0.1308,0,0,-0.0795,-0.0788,-0.0765,-0.0758,-0.0747,-0.0757,-0.0747,-0.076,-0.0782,-0.0811,-0.0876,-0.0935,-0.1033,-0.1102,-0.1151,-0.1148,-0.1211,-0.117,-0.1143,-0.1194,-0.1194,-0.1194,-0.1198,-0.12,-0.1178,-0.1178,-0.1178,0,-0.0802,-0.076,-0.0763,-0.0736,-0.0722,-0.0742,-0.0714,-0.0742,-0.0775,-0.0791,-0.0813,-0.0939,-0.1019,-0.1099,-0.1103,-0.1138,-0.1159,-0.1166,-0.1187,-0.1188,-0.1189,-0.1194,-0.1197,-0.1174,-0.1175,-0.1175,-0.1175,0,-0.0768,-0.0734,-0.072,-0.0685,-0.068,-0.0658,-0.0674,-0.0683,-0.0704,-0.0733,-0.0794,-0.0891,-0.0964,-0.1004,-0.1064,-0.1118,-0.1124,-0.1164,-0.1204,-0.1184,-0.119,-0.1193,-0.1169,-0.117,-0.1171,-0.1172,0,0,-0.076,-0.0705,-0.0694,-0.0649,-0.0641,-0.0617,-0.0634,-0.0639,-0.0629,-0.0701,-0.0705,-0.0839,-0.0881,-0.0937,-0.1017,-0.1079,-0.1106,-0.1126,-0.113,-0.1127,-0.1183,-0.1103,-0.1099,-0.1155,-0.1156,-0.1157,-0.1172,0,-0.0721,-0.0643,-0.0637,-0.0564,-0.0517,-0.0537,-0.0536,-0.0555,-0.0586,-0.0601,-0.0718,-0.0756,-0.086,-0.0883,-0.0967,-0.1069,-0.1117,-0.1095,-0.1206,-0.1208,-0.1139,-0.1102,-0.1023,-0.1023,-0.1176,-0.1176,-0.1177,0,-0.0673,-0.0615,-0.0538,-0.0457,-0.044,-0.0417,-0.0389,-0.0386,-0.0445,-0.0474,-0.0555,-0.0631,-0.0743,-0.0815,-0.0993,-0.0974,-0.1068,-0.115,-0.1153,-0.1108,-0.1135,-0.1076,-0.1024,-0.1183,-0.1183,-0.1183,-0.1182,0,-0.062,-0.0535,-0.0459,-0.0435,-0.0374,-0.0349,-0.0323,-0.0351,-0.0314,-0.0384,-0.0367,-0.0529,-0.0562,-0.0741,-0.0917,-0.0956,-0.108,-0.1154,-0.1166,-0.1161,-0.1129,-0.1118,-0.1244,-0.126,-0.126,-0.126,-0.126,0,-0.0557,-0.0486,-0.0421,-0.0371,-0.0265,-0.0263,-0.0175,-0.0187,-0.0178,-0.012,-0.0284,-0.0261,-0.0544,-0.0653,-0.0855,-0.0995,-0.1033,-0.1141,-0.1161,-0.1096,-0.1082,-0.1249,-0.1355,-0.1261,-0.1261,-0.1261,-0.1261,0,-0.0498,-0.0464,-0.0353,-0.0269,-0.0231,-0.0152,-0.0039,0.0025,0.0004,0.0076,0.0068,-0.0041,-0.0173,-0.0434,-0.0682,-0.0857,-0.1101,-0.1079,-0.0954,-0.0958,-0.1119,-0.1222,-0.1352,-0.1413,-0.1098,-0.1096,-0.1094,0,-0.0454,-0.0398,-0.0264,-0.0174,-0.0124,-0.0008,0.0081,0.0111,0.0189,0.0228,0.0283,0.0195,0.0162,-0.015,-0.0467,-0.0763,-0.0986,-0.0897,-0.0971,-0.1093,-0.1226,-0.1313,-0.1363,-0.0897,-0.0894,-0.0892,-0.089,0,-0.0353,-0.0319,-0.0219,-0.0048,0.0073,0.021,0.0335,0.0426,0.0468,0.0531,0.0619,0.061,0.0366,0.0134,-0.0252,-0.0486,-0.097,-0.085,-0.1037,-0.1113,-0.116,-0.1236,-0.0901,-0.0867,-0.0869,-0.0871,-0.0872,-0.0873,-0.0263,-0.0178,-0.0049,0.0112,0.0249,0.0409,0.0514,0.0648,0.0793,0.0902,0.0893,0.0931,0.0593,0.011,-0.0198,-0.0704,-0.0771,-0.0894,-0.1016,-0.1097,-0.1141,-0.0714,-0.0668,-0.0669,-0.067,-0.067,-0.0671,0,-0.0119,-0.0035,0.0115,0.0302,0.0448,0.0493,0.0678,0.0777,0.0945,0.1101,0.1184,0.1088,0.0677,0.0191,-0.0459,-0.082,-0.1006,-0.1058,-0.1209,-0.1262,-0.0927,-0.0903,-0.083,-0.083,-0.083,-0.083,-0.083,-0.083,-0.0025,0.0135,0.0192,0.0443,0.0558,0.0728,0.0819,0.0974,0.1113,0.132,0.1403,0.1431,0.108,-0.0104,-0.091,-0.1112,-0.1419,-0.1437,-0.1627,-0.1447,-0.1444,-0.144,-0.1444,-0.1486,-0.1487,-0.1894,-0.1898,-0.1901]}],[{"header":{"parameterUnit":"m.s-1","parameterCategory":2,"la1":30.2991,"la2":30.254,"lo1":-89.0895,"lo2":-89.0444,"dy":0.0017,"dx":0.0017,"nx":28,"ny":28,"refTime":"2025-09-11T03:00:00:Z","depth":"2","parameterNumber":2,"parameterNumberName":"U-component_of_CURRENTS"},"data":[0,0,0,0,0,0,0,0,0,0,0,0,0,0,0,0,0,0,0,0,0,0,0,0,0,0,0,0,0,0,0,0,0,0,0,0,0,0,0,0,0,0,0,0,0,0,0,0,0,0,0,0,0,0,0,0,0,0,0.1642,0.1642,0,0.167,0.167,0.167,0.1688,0.1688,0.1688,0.1688,0.1716,0.1717,0.1718,0,0,0,0,0,0,0,0,0,0,0,0,0,0.1667,0.1666,0.1642,0.1642,0.1642,0.1669,0.167,0.167,0.1688,0.1688,0.1688,0.1688,0.1716,0.1717,0.1718,0,0,0,0,0,0,0,0,0,0,0,0,0,0.1672,0.1666,0.1642,0.1654,0.1655,0.1669,0.167,0.1671,0.1688,0.1688,0.1688,0.1688,0.1716,0.1717,0.1718,0.1725,0,0,0.1721,0.1722,0,0,0,0,0,0,0,0,0.1672,0.1671,0.1652,0.1653,0.1654,0.1674,0.1689,0.1688,0.1688,0.1677,0.1688,0.1688,0.1701,0.1704,0.1711,0.1726,0.1727,0.1721,0.1722,0.1723,0.1723,0,0,0,0,0,0,0,0.1671,0.1671,0.1654,0.1652,0.1654,0.1679,0.1679,0.1689,0.169,0.1678,0.1679,0.168,0.1702,0.171,0.1712,0.1728,0.1721,0.1722,0.1723,0.1724,0.1772,0.1773,0,0,0,0,0,0,0.1662,0.167,0.1653,0.1655,0.1662,0.1678,0.1678,0.1669,0.169,0.1693,0.168,0.1681,0.1708,0.171,0.1713,0.175,0.1723,0.1724,0.1724,0.1772,0.1772,0.1773,0,0,0,0,0,0,0.1662,0.166,0.1652,0.1663,0.1663,0.1677,0.1667,0.167,0.1673,0.1691,0.1694,0.168,0.1708,0.1711,0.1734,0.175,0.1724,0.1725,0.1771,0.1772,0.1773,0.1806,0,0,0,0,0,0,0.1663,0.1659,0.1649,0.1662,0.1662,0.1664,0.1667,0.167,0.1674,0.1675,0.1692,0.1695,0.1708,0.1732,0.1735,0.1751,0.1726,0.177,0.1771,0.1772,0.1804,0.1808,0.1811,0,0,0,0,0,0.1663,0.1646,0.1648,0.1647,0.1648,0.1665,0.1668,0.1679,0.1673,0.1681,0.1698,0.1695,0.1741,0.1734,0.1737,0.1753,0.177,0.1771,0.1772,0.1803,0.1807,0.1811,0,0,0,0,0,0,0.165,0.1647,0.1649,0.1632,0.165,0.1667,0.1669,0.1674,0.1692,0.1691,0.1705,0.171,0.1735,0.1737,0.1728,0.177,0.1753,0.1756,0.1776,0.178,0.1783,0.1767,0.1727,0,0,0,0,0,0.1642,0.1627,0.1641,0.1627,0.1636,0.1651,0.1657,0.1667,0.1683,0.169,0.1704,0.172,0.1744,0.1755,0.1771,0.1794,0.1806,0.1805,0.1809,0.1812,0.18,0.1841,0.1847,0.1778,0.1778,0.1778,0,0,0.1632,0.1628,0.162,0.1624,0.1636,0.1654,0.1655,0.1664,0.1682,0.169,0.1714,0.1731,0.1751,0.1783,0.1794,0.1787,0.1842,0.1813,0.1816,0.1803,0.1843,0.185,0.1856,0.1779,0.1778,0.1778,0,0,0.1615,0.1605,0.1596,0.1613,0.1629,0.1647,0.1648,0.167,0.1683,0.1706,0.1724,0.1758,0.1774,0.1812,0.1827,0.1858,0.1858,0.1851,0.1861,0.1901,0.1907,0.1913,0.1957,0.1966,0.1856,0.1856,0.1856,0,0.1605,0.1599,0.16,0.1608,0.1627,0.1643,0.1663,0.1677,0.1705,0.1726,0.1714,0.1772,0.1794,0.185,0.1859,0.1869,0.188,0.1846,0.1907,0.1912,0.1917,0.1961,0.197,0.1858,0.1857,0.1857,0.1857,0,0.1593,0.1598,0.1597,0.1615,0.1636,0.1653,0.1683,0.1705,0.1716,0.1737,0.178,0.1812,0.1852,0.1863,0.1867,0.1917,0.1911,0.1907,0.1897,0.1926,0.197,0.198,0.186,0.1859,0.1859,0.1858,0,0,0.1555,0.1584,0.1586,0.1615,0.1646,0.167,0.17,0.1747,0.1784,0.1792,0.1842,0.1875,0.1886,0.1904,0.1923,0.1948,0.2008,0.193,0.1931,0.1975,0.2091,0.2128,0.2142,0.2004,0.2005,0.2006,0.2115,0,0.1555,0.158,0.1593,0.164,0.167,0.1704,0.1741,0.1782,0.1817,0.1868,0.1889,0.1941,0.1904,0.194,0.1953,0.2003,0.2029,0.1978,0.2053,0.2056,0.2087,0.2153,0.1966,0.205,0.2124,0.2126,0.2127,0,0.1552,0.1573,0.1613,0.1684,0.17,0.1729,0.1815,0.1849,0.1913,0.1943,0.1976,0.1994,0.2047,0.2007,0.2075,0.2037,0.2054,0.2075,0.208,0.2104,0.211,0.2029,0.2064,0.2143,0.2141,0.214,0.2139,0,0.1554,0.1599,0.1637,0.1657,0.1726,0.1759,0.18,0.1871,0.1931,0.1999,0.206,0.2084,0.2153,0.2141,0.219,0.2127,0.2271,0.2205,0.2252,0.2255,0.2106,0.2094,0.2242,0.2242,0.2241,0.2241,0.2241,0,0.1564,0.1599,0.1642,0.1666,0.173,0.1773,0.1856,0.1903,0.1996,0.2065,0.21,0.2173,0.2186,0.2267,0.2239,0.2309,0.2324,0.2268,0.2292,0.2116,0.2105,0.2179,0.217,0.2245,0.2244,0.2243,0.2243,0,0.1569,0.1593,0.1644,0.1708,0.1735,0.178,0.1892,0.1948,0.2046,0.2144,0.2174,0.2288,0.238,0.2423,0.2474,0.2431,0.2461,0.2481,0.2287,0.2286,0.2386,0.2378,0.2498,0.25,0.2502,0.2504,0.2505,0,0.1571,0.1595,0.1665,0.1691,0.172,0.1796,0.1844,0.1953,0.2012,0.2197,0.2235,0.2399,0.2447,0.2592,0.2578,0.259,0.2588,0.2432,0.227,0.2404,0.2416,0.2404,0.2393,0.2086,0.2083,0.2082,0.208,0,0.1573,0.1596,0.1632,0.1684,0.173,0.1789,0.1862,0.1924,0.2038,0.2134,0.2244,0.2308,0.248,0.2434,0.2538,0.2493,0.2404,0.2398,0.2611,0.2066,0.2029,0.2036,0.2036,0.2065,0.2066,0.2067,0.2068,0.2069,0.1559,0.1582,0.1618,0.1665,0.1708,0.1732,0.1756,0.1831,0.191,0.2005,0.2138,0.2187,0.2272,0.2312,0.2278,0.2271,0.239,0.2243,0.2241,0.2243,0.2192,0.2163,0.2214,0.2216,0.2218,0.222,0.2222,0,0.1528,0.1557,0.1595,0.1625,0.163,0.1681,0.1726,0.1719,0.1744,0.1863,0.1934,0.1849,0.1892,0.1985,0.1942,0.1963,0.1861,0.1886,0.1717,0.1739,0.1756,0.1671,0.1559,0.1556,0.1554,0.1552,0,0,0.1507,0.1528,0.1547,0.1527,0.1547,0.1515,0.1514,0.1516,0.1564,0.1551,0.1587,0.1788,0.1911,0.1695,0.1702,0.1616,0.1641,0.1556,0.2098,0.192,0.1932,0.1991,0.1891,0,0,0,0,0]},{"header":{"parameterUnit":"m.s-1","parameterCategory":2,"la1":30.2991,"la2":30.254,"lo1":-89.0895,"lo2":-89.0444,"dy":0.0017,"dx":0.0017,"nx":28,"ny":28,"refTime":"2025-09-11T03:00:00:Z","depth":"2","parameterNumber":3,"parameterNumberName":"V-component_of_CURRENTS"},"data":[0,0,0,0,0,0,0,0,0,0,0,0,0,0,0,0,0,0,0,0,0,0,0,0,0,0,0,0,0,0,0,0,0,0,0,0,0,0,0,0,0,0,0,0,0,0,0,0,0,0,0,0,0,0,0,0,0,0,-0.0024,-0.0026,0,-0.0178,-0.0179,-0.018,-0.0283,-0.0284,-0.0286,-0.0287,-0.0397,-0.0399,-0.0401,0,0,0,0,0,0,0,0,0,0,0,0,0,0.0153,0.0151,-0.0024,-0.0027,-0.0029,-0.0177,-0.0179,-0.0181,-0.0283,-0.0285,-0.0286,-0.0287,-0.0397,-0.0399,-0.0401,0,0,0,0,0,0,0,0,0,0,0,0,0,0.005,0.015,-0.0024,-0.0102,-0.0111,-0.0177,-0.0179,-0.0181,-0.0283,-0.0285,-0.0286,-0.0288,-0.0396,-0.0399,-0.0401,-0.0383,0,0,-0.041,-0.0411,0,0,0,0,0,0,0,0,0.0056,0.0045,-0.0088,-0.0096,-0.0107,-0.0218,-0.0158,-0.0248,-0.0282,-0.0212,-0.0287,-0.0289,-0.0335,-0.0343,-0.0361,-0.0388,-0.0393,-0.041,-0.0412,-0.0413,-0.0414,0,0,0,0,0,0,0,0.0064,0.005,-0.008,-0.009,-0.0102,-0.0139,-0.0154,-0.0175,-0.0257,-0.0218,-0.0227,-0.0252,-0.034,-0.0358,-0.0365,-0.0395,-0.041,-0.0412,-0.0414,-0.0415,-0.0503,-0.0503,0,0,0,0,0,0,0.0075,0.0057,-0.0075,-0.0085,-0.0034,-0.0141,-0.0158,-0.0176,-0.0258,-0.0274,-0.025,-0.0256,-0.0353,-0.0361,-0.0369,-0.0384,-0.0413,-0.0416,-0.0417,-0.0502,-0.0503,-0.0504,0,0,0,0,0,0,0.008,0.0065,-0.0069,-0.0022,-0.0042,-0.0142,-0.0161,-0.0178,-0.0227,-0.0284,-0.0298,-0.0286,-0.0355,-0.0365,-0.0396,-0.0388,-0.0417,-0.0419,-0.0501,-0.0502,-0.0503,-0.0394,0,0,0,0,0,0,0.0086,0.0068,0.0055,-0.0021,-0.0045,-0.0115,-0.0161,-0.018,-0.024,-0.025,-0.0318,-0.0329,-0.0357,-0.0391,-0.0398,-0.0393,-0.0421,-0.05,-0.0502,-0.0503,-0.0397,-0.0391,-0.0386,0,0,0,0,0,0.0093,0.0073,0.0055,0.0038,-0.0058,-0.0116,-0.013,-0.0204,-0.024,-0.0255,-0.0297,-0.0329,-0.0406,-0.0393,-0.0401,-0.0396,-0.05,-0.0501,-0.0503,-0.0399,-0.0392,-0.0386,0,0,0,0,0,0,0.0138,0.0058,0.0037,-0.0006,-0.0056,-0.0135,-0.0171,-0.0211,-0.0258,-0.0274,-0.0321,-0.0334,-0.036,-0.04,-0.0385,-0.0432,-0.0464,-0.0467,-0.0383,-0.0377,-0.0372,-0.039,-0.0424,0,0,0,0,0,0.0146,0.011,0.0042,0.0007,-0.002,-0.0093,-0.0131,-0.0174,-0.0227,-0.0253,-0.0292,-0.0341,-0.0368,-0.039,-0.0422,-0.0437,-0.0483,-0.0449,-0.0444,-0.0439,-0.0464,-0.0492,-0.0491,-0.0508,-0.0508,-0.0508,0,0,0.0158,0.0103,0.0086,0.0014,-0.0036,-0.0072,-0.012,-0.0179,-0.0204,-0.0252,-0.0294,-0.0319,-0.037,-0.0385,-0.0402,-0.0418,-0.046,-0.0441,-0.0435,-0.0464,-0.0494,-0.0492,-0.049,-0.0509,-0.0509,-0.0509,0,0,0.0152,0.0112,0.0078,0.004,-0.0038,-0.0074,-0.0091,-0.0163,-0.0194,-0.0225,-0.0263,-0.0278,-0.034,-0.0352,-0.0372,-0.0362,-0.0428,-0.0392,-0.0377,-0.0402,-0.04,-0.0399,-0.0451,-0.0455,-0.0391,-0.039,-0.039,0,0.0162,0.0118,0.0063,0.002,-0.0007,-0.0072,-0.0095,-0.0133,-0.02,-0.0217,-0.0234,-0.0302,-0.0321,-0.0337,-0.0334,-0.0345,-0.0396,-0.0382,-0.0391,-0.0391,-0.0392,-0.0446,-0.0452,-0.0385,-0.0386,-0.0386,-0.0387,0,0.013,0.0101,0.0075,0.0011,-0.0016,-0.0051,-0.0098,-0.0122,-0.0159,-0.0199,-0.0228,-0.0244,-0.0291,-0.0287,-0.0308,-0.0325,-0.0371,-0.037,-0.0394,-0.0383,-0.0442,-0.045,-0.0378,-0.038,-0.0381,-0.0383,0,0,0.0122,0.0069,0.0053,0.0055,-0.0019,-0.0035,-0.0068,-0.0107,-0.0114,-0.0176,-0.0193,-0.022,-0.0248,-0.0275,-0.0287,-0.0303,-0.0323,-0.0348,-0.0351,-0.038,-0.0418,-0.0343,-0.0346,-0.0329,-0.033,-0.0331,-0.0454,0,0.0108,0.0068,0.0038,0.0027,0.0015,-0.0021,-0.0033,-0.0074,-0.0099,-0.0126,-0.0176,-0.0197,-0.0241,-0.0236,-0.0269,-0.0302,-0.0345,-0.0293,-0.0447,-0.0452,-0.0368,-0.0352,-0.034,-0.044,-0.0462,-0.0464,-0.0465,0,0.0063,0.0058,0.0051,0.0067,0.0058,0.0049,0.0048,0.0032,-0.0029,-0.0052,-0.011,-0.016,-0.021,-0.0229,-0.0336,-0.0311,-0.0381,-0.0412,-0.0417,-0.0398,-0.0392,-0.046,-0.0455,-0.048,-0.0479,-0.0478,-0.0477,0,0.0077,0.0062,0.0076,0.0071,0.0072,0.008,0.0077,0.0044,0.0071,-0.0007,0.0003,-0.0113,-0.0121,-0.0247,-0.0335,-0.0349,-0.0445,-0.0462,-0.0478,-0.0475,-0.0522,-0.052,-0.0558,-0.0558,-0.0558,-0.0558,-0.0557,0,0.0061,0.0072,0.0093,0.01,0.0153,0.0124,0.0176,0.015,0.0148,0.0184,0.0045,0.0076,-0.0123,-0.0201,-0.0333,-0.0422,-0.0455,-0.0487,-0.0494,-0.0483,-0.0475,-0.056,-0.0559,-0.0562,-0.0561,-0.056,-0.056,0,0.0071,0.0062,0.0111,0.0144,0.0159,0.02,0.0266,0.0312,0.0281,0.0332,0.031,0.0217,0.0118,-0.0072,-0.0238,-0.0358,-0.0477,-0.0507,-0.0489,-0.049,-0.0512,-0.0504,-0.0565,-0.0563,-0.0562,-0.0561,-0.056,0,0.0083,0.0099,0.0168,0.022,0.0243,0.0307,0.0358,0.0366,0.0431,0.045,0.0486,0.0401,0.0354,0.0118,-0.0115,-0.036,-0.0398,-0.0483,-0.0486,-0.0508,-0.051,-0.0505,-0.0499,-0.0531,-0.053,-0.0529,-0.0528,0,0.0141,0.0154,0.0202,0.0307,0.0379,0.0476,0.0547,0.0621,0.0641,0.068,0.0728,0.0691,0.0474,0.0251,-0.0057,-0.0218,-0.0448,-0.0464,-0.0505,-0.0491,-0.0474,-0.0476,-0.0472,-0.0519,-0.052,-0.0521,-0.0521,-0.0522,0.0204,0.0255,0.0311,0.0417,0.0504,0.0616,0.0702,0.0784,0.0881,0.094,0.0912,0.0867,0.0603,0.0234,-0.004,-0.0331,-0.0329,-0.0452,-0.0458,-0.0463,-0.0397,-0.0373,-0.0391,-0.0392,-0.0392,-0.0392,-0.0392,0,0.0292,0.0323,0.0423,0.0537,0.0647,0.0674,0.0818,0.0903,0.1016,0.1061,0.1081,0.0858,0.0602,0.0311,-0.0104,-0.0352,-0.0423,-0.0427,-0.0477,-0.0483,-0.0489,-0.0426,-0.0428,-0.0429,-0.0429,-0.043,0,0,0.0329,0.0417,0.0462,0.0636,0.0721,0.0889,0.0974,0.1072,0.1139,0.1179,0.1156,0.1075,0.0714,0.0415,0.0058,-0.0178,-0.0275,-0.023,-0.0176,-0.0199,-0.0202,-0.0478,-0.0383,0,0,0,0,0]}],[{"header":{"parameterUnit":"m.s-1","parameterCategory":2,"la1":30.2991,"la2":30.254,"lo1":-89.0895,"lo2":-89.0444,"dy":0.0017,"dx":0.0017,"nx":28,"ny":28,"refTime":"2025-09-11T03:00:00:Z","depth":"4","parameterNumber":2,"parameterNumberName":"U-component_of_CURRENTS"},"data":[0,0,0,0,0,0,0,0,0,0,0,0,0,0,0,0,0,0,0,0,0,0,0,0,0,0,0,0,0,0,0,0,0,0,0,0,0,0,0,0,0,0,0,0,0,0,0,0,0,0,0,0,0,0,0,0,0,0,0.0905,0.0906,0,0.097,0.097,0.0971,0.1009,0.1009,0.101,0.101,0.1091,0.1093,0.1094,0,0,0,0,0,0,0,0,0,0,0,0,0,0.0823,0.0824,0.0905,0.0906,0.0907,0.0969,0.097,0.0971,0.1009,0.1009,0.101,0.101,0.109,0.1092,0.1095,0,0,0,0,0,0,0,0,0,0,0,0,0,0.0869,0.0824,0.0905,0.0934,0.0938,0.0969,0.097,0.0971,0.1009,0.1009,0.101,0.101,0.1089,0.1092,0.1095,0.1105,0,0,0.1104,0.1105,0,0,0,0,0,0,0,0,0.0866,0.0872,0.0929,0.0932,0.0936,0.0982,0.0971,0.1017,0.1009,0.0981,0.101,0.101,0.1056,0.1062,0.1072,0.1109,0.1112,0.1104,0.1106,0.1107,0.1108,0,0,0,0,0,0,0,0.0863,0.0869,0.093,0.093,0.0934,0.0947,0.0953,0.098,0.1015,0.0983,0.0987,0.0995,0.1058,0.1069,0.1074,0.1114,0.1104,0.1106,0.1108,0.1109,0.121,0.1211,0,0,0,0,0,0,0.0856,0.0866,0.0928,0.0932,0.0902,0.0948,0.0955,0.0966,0.1015,0.1023,0.0995,0.0997,0.1064,0.1071,0.1077,0.1151,0.1107,0.111,0.1111,0.1209,0.1211,0.1212,0,0,0,0,0,0,0.0854,0.0861,0.0925,0.0901,0.091,0.0949,0.0961,0.0968,0.0998,0.1023,0.1031,0.1021,0.1064,0.1073,0.1117,0.1152,0.1111,0.1114,0.1208,0.121,0.1211,0.1262,0,0,0,0,0,0,0.0852,0.086,0.0876,0.0901,0.0911,0.0955,0.0961,0.0969,0.1002,0.1006,0.1048,0.1055,0.1065,0.1113,0.112,0.1155,0.1116,0.1207,0.1209,0.1211,0.1259,0.1265,0.127,0,0,0,0,0,0.0848,0.0864,0.0876,0.0884,0.0928,0.0956,0.0963,0.0991,0.1003,0.1019,0.1049,0.1055,0.1129,0.1116,0.1124,0.1161,0.1206,0.1208,0.121,0.1256,0.1263,0.1269,0,0,0,0,0,0,0.0833,0.087,0.0884,0.091,0.0937,0.0963,0.0983,0.1002,0.1038,0.1048,0.1069,0.1078,0.1131,0.1134,0.1119,0.1193,0.1168,0.1172,0.12,0.1207,0.1212,0.121,0.1118,0,0,0,0,0,0.0837,0.0864,0.0893,0.0917,0.0929,0.096,0.0979,0.1,0.103,0.1047,0.1079,0.111,0.1143,0.1165,0.1191,0.1233,0.1238,0.126,0.1265,0.127,0.1273,0.1317,0.1327,0.1219,0.1219,0.1219,0,0,0.0838,0.0863,0.0878,0.0917,0.0939,0.096,0.0973,0.1007,0.1036,0.105,0.1106,0.1134,0.1157,0.1206,0.1229,0.1217,0.1301,0.1273,0.1277,0.1277,0.132,0.1331,0.134,0.122,0.122,0.122,0,0,0.0842,0.0874,0.0891,0.0914,0.0953,0.0975,0.0989,0.103,0.1062,0.111,0.1132,0.1179,0.1226,0.1255,0.1272,0.1321,0.1329,0.1334,0.1365,0.1408,0.1418,0.1426,0.1438,0.1447,0.1337,0.1337,0.1337,0,0.0843,0.0868,0.0901,0.0918,0.0937,0.0982,0.0998,0.1038,0.1094,0.1125,0.1132,0.1219,0.1247,0.1305,0.133,0.1336,0.1352,0.1341,0.1416,0.1425,0.1433,0.1443,0.1452,0.134,0.1339,0.1339,0.1339,0,0.0848,0.0876,0.0887,0.0926,0.0952,0.0978,0.1025,0.1073,0.1117,0.1154,0.1229,0.1269,0.132,0.1342,0.1358,0.1432,0.1422,0.142,0.1401,0.1447,0.1454,0.1463,0.1344,0.1343,0.1342,0.1341,0,0,0.0831,0.0882,0.0888,0.0909,0.0959,0.0982,0.1038,0.1099,0.115,0.1209,0.1271,0.1338,0.1372,0.1394,0.1425,0.147,0.1545,0.1479,0.148,0.1492,0.1629,0.1546,0.1547,0.1567,0.1569,0.1571,0.1609,0,0.0827,0.0859,0.0886,0.0924,0.0943,0.0998,0.1049,0.1114,0.1177,0.1254,0.1312,0.1385,0.1388,0.1436,0.1479,0.1546,0.1573,0.1534,0.1581,0.1582,0.1505,0.1556,0.1577,0.1616,0.1618,0.1619,0.162,0,0.0817,0.0845,0.0874,0.0936,0.095,0.0986,0.1078,0.1133,0.1242,0.1294,0.1365,0.1417,0.1511,0.1502,0.1605,0.1587,0.1609,0.1638,0.164,0.155,0.1515,0.1563,0.1636,0.1635,0.1634,0.1633,0.1632,0,0.0786,0.0836,0.0865,0.0881,0.0956,0.0997,0.1054,0.1152,0.1214,0.1338,0.1392,0.1484,0.1561,0.1608,0.1676,0.1657,0.1774,0.1746,0.1672,0.1665,0.1706,0.1696,0.1792,0.1792,0.1792,0.1792,0.1792,0,0.0765,0.0791,0.0862,0.0877,0.094,0.0994,0.1079,0.1152,0.1258,0.1338,0.1421,0.1487,0.1601,0.1676,0.1702,0.1724,0.1791,0.1685,0.1679,0.1723,0.1716,0.1711,0.1701,0.1793,0.1793,0.1792,0.1792,0,0.0726,0.0769,0.0809,0.0889,0.0927,0.0977,0.1096,0.116,0.1258,0.1365,0.1412,0.1533,0.1627,0.1697,0.1796,0.1758,0.1787,0.1766,0.181,0.1804,0.1632,0.1624,0.1674,0.1672,0.1669,0.1668,0.1666,0,0.0709,0.0724,0.0812,0.0854,0.0898,0.0986,0.1056,0.1164,0.1228,0.1378,0.1423,0.1548,0.1617,0.1674,0.175,0.1777,0.1754,0.175,0.1681,0.1635,0.1625,0.162,0.1615,0.1663,0.1663,0.1662,0.1661,0,0.0675,0.0711,0.0752,0.0837,0.0911,0.0985,0.1086,0.1114,0.1245,0.1337,0.1417,0.1469,0.1563,0.1626,0.1669,0.1679,0.1751,0.1727,0.173,0.1666,0.1622,0.1613,0.1611,0.1654,0.1655,0.1656,0.1656,0,0.0655,0.0678,0.0743,0.0815,0.091,0.0969,0.1015,0.1095,0.1165,0.1309,0.1338,0.1452,0.156,0.1575,0.1616,0.1629,0.1588,0.1538,0.155,0.1558,0.1504,0.1431,0.1409,0,0,0,0,0,0.0629,0.0657,0.0722,0.0795,0.0887,0.0934,0.104,0.1081,0.1188,0.122,0.1273,0.1349,0.141,0.1465,0.1452,0.1549,0.1588,0.1527,0.1534,0.1615,0.1623,0.1571,0,0,0,0,0,0,0.0608,0.0665,0.0703,0.0777,0.0813,0.0903,0.0955,0.1016,0.1035,0.1142,0.118,0.1274,0.1346,0.1402,0.1426,0.1443,0.1424,0.1597,0.1594,0.161,0.1618,0.1624,0.1574,0,0,0,0,0]},{"header":{"parameterUnit":"m.s-1","parameterCategory":2,"la1":30.2991,"la2":30.254,"lo1":-89.0895,"lo2":-89.0444,"dy":0.0017,"dx":0.0017,"nx":28,"ny":28,"refTime":"2025-09-11T03:00:00:Z","depth":"4","parameterNumber":3,"parameterNumberName":"V-component_of_CURRENTS"},"data":[0,0,0,0,0,0,0,0,0,0,0,0,0,0,0,0,0,0,0,0,0,0,0,0,0,0,0,0,0,0,0,0,0,0,0,0,0,0,0,0,0,0,0,0,0,0,0,0,0,0,0,0,0,0,0,0,0,0,0.0347,0.0347,0,0.0325,0.0325,0.0325,0.0316,0.0316,0.0316,0.0316,0.0269,0.0268,0.0267,0,0,0,0,0,0,0,0,0,0,0,0,0,0.0368,0.0368,0.0347,0.0347,0.0346,0.0325,0.0325,0.0325,0.0316,0.0316,0.0316,0.0316,0.027,0.0268,0.0267,0,0,0,0,0,0,0,0,0,0,0,0,0,0.0354,0.0368,0.0347,0.034,0.0339,0.0325,0.0325,0.0325,0.0316,0.0316,0.0316,0.0316,0.027,0.0268,0.0266,0.0252,0,0,0.026,0.0259,0,0,0,0,0,0,0,0,0.0355,0.0353,0.0341,0.034,0.0339,0.0324,0.0315,0.0299,0.0316,0.0325,0.0316,0.0317,0.0285,0.0282,0.0278,0.0249,0.0247,0.026,0.0259,0.0258,0.0258,0,0,0,0,0,0,0,0.0356,0.0354,0.0338,0.0341,0.034,0.0333,0.0332,0.0312,0.0304,0.0324,0.0323,0.0321,0.0285,0.028,0.0276,0.0247,0.026,0.0258,0.0257,0.0256,0.0218,0.0218,0,0,0,0,0,0,0.0359,0.0355,0.0339,0.0337,0.0348,0.0333,0.0331,0.0328,0.0305,0.0301,0.0321,0.0321,0.0283,0.0279,0.0275,0.0276,0.0258,0.0256,0.0255,0.0218,0.0218,0.0218,0,0,0,0,0,0,0.036,0.0358,0.034,0.0346,0.0343,0.0333,0.033,0.0328,0.0327,0.0303,0.0299,0.0323,0.0283,0.0278,0.0265,0.0273,0.0255,0.0254,0.0217,0.0218,0.0218,0.0266,0,0,0,0,0,0,0.0361,0.0359,0.0362,0.0346,0.0343,0.0336,0.033,0.0327,0.0326,0.0325,0.0303,0.0299,0.0283,0.0269,0.0263,0.027,0.0252,0.0217,0.0218,0.0218,0.0264,0.0268,0.0271,0,0,0,0,0,0.0362,0.0366,0.0362,0.036,0.0347,0.0337,0.0334,0.0327,0.0326,0.0327,0.0314,0.03,0.0267,0.0267,0.0261,0.0268,0.0217,0.0218,0.0218,0.0262,0.0267,0.0271,0,0,0,0,0,0,0.0375,0.0365,0.0361,0.0361,0.0352,0.0335,0.0338,0.0331,0.0322,0.0325,0.0301,0.0295,0.0286,0.0269,0.027,0.0257,0.024,0.0239,0.0275,0.0279,0.0283,0.0309,0.025,0,0,0,0,0,0.0379,0.0383,0.0367,0.0369,0.0366,0.0353,0.035,0.0344,0.0333,0.033,0.0314,0.0298,0.0281,0.0276,0.0257,0.025,0.0232,0.025,0.0254,0.0257,0.0274,0.0255,0.0259,0.0219,0.0219,0.0219,0,0,0.0385,0.0381,0.0382,0.0373,0.0367,0.0371,0.0352,0.0351,0.0359,0.0325,0.0332,0.0306,0.0281,0.0275,0.0269,0.0264,0.0254,0.0257,0.026,0.0276,0.0256,0.026,0.0264,0.022,0.022,0.022,0,0,0.0399,0.0394,0.0402,0.0399,0.0394,0.0387,0.0388,0.0376,0.0376,0.0371,0.0351,0.0335,0.031,0.0299,0.0288,0.0298,0.027,0.0288,0.0331,0.0313,0.0317,0.0319,0.0286,0.0286,0.0294,0.0294,0.0294,0,0.0408,0.0414,0.0402,0.0411,0.0417,0.0397,0.041,0.0406,0.0393,0.04,0.038,0.0353,0.0324,0.0326,0.0328,0.0307,0.0289,0.0319,0.0319,0.0321,0.0324,0.0289,0.0288,0.0297,0.0296,0.0296,0.0296,0,0.0425,0.0435,0.0441,0.0449,0.0453,0.0459,0.0455,0.0459,0.0452,0.0448,0.0446,0.0406,0.0393,0.0376,0.0354,0.0359,0.0338,0.0322,0.0312,0.0331,0.0292,0.029,0.03,0.0299,0.0298,0.0298,0,0,0.0432,0.045,0.0454,0.0466,0.0476,0.0478,0.0501,0.0512,0.0525,0.0511,0.0522,0.0493,0.0475,0.0461,0.0428,0.0414,0.0397,0.0382,0.038,0.0356,0.0349,0.0272,0.0261,0.0384,0.0385,0.0385,0.0311,0,0.045,0.0476,0.0485,0.0514,0.0525,0.0531,0.0552,0.0564,0.0561,0.0563,0.0542,0.0528,0.0507,0.0488,0.0478,0.0413,0.0397,0.0418,0.033,0.0327,0.0262,0.0259,0.0386,0.0309,0.0309,0.0308,0.0308,0,0.0464,0.048,0.0514,0.0546,0.0553,0.057,0.0601,0.0616,0.0627,0.0623,0.0625,0.0596,0.0579,0.0542,0.0482,0.0498,0.0437,0.0387,0.0383,0.0298,0.0247,0.0289,0.0304,0.0304,0.0305,0.0305,0.0305,0,0.0466,0.0502,0.0531,0.0541,0.0573,0.0595,0.0614,0.0637,0.0648,0.0656,0.0646,0.0641,0.0602,0.0561,0.0461,0.0474,0.0373,0.0371,0.0248,0.0241,0.0314,0.0312,0.0331,0.0331,0.0331,0.0331,0.0332,0,0.0479,0.0503,0.0533,0.0546,0.058,0.0604,0.0637,0.0654,0.0669,0.0677,0.0672,0.0648,0.0604,0.0538,0.0473,0.0345,0.0381,0.0257,0.022,0.0332,0.0333,0.0312,0.031,0.0328,0.0329,0.033,0.033,0,0.0479,0.05,0.0528,0.0565,0.058,0.0602,0.0643,0.066,0.0675,0.0678,0.0676,0.0643,0.0555,0.0488,0.0385,0.0327,0.0229,0.0171,0.0281,0.0251,0.0111,0.0113,0.0049,0.0045,0.0042,0.004,0.0038,0,0.0478,0.0493,0.0533,0.0544,0.0563,0.0599,0.0624,0.0659,0.0673,0.0662,0.0654,0.0575,0.0539,0.0352,0.0277,0.0146,0.0122,0.0077,0.0121,0.0113,0.0084,0.0091,0.0096,0.0034,0.0033,0.0032,0.0032,0,0.0471,0.0488,0.0509,0.0535,0.056,0.0597,0.0631,0.0637,0.0669,0.0672,0.0623,0.0537,0.0419,0.0315,0.0195,0.0106,0.012,0.0048,0.0054,0.0096,0.0094,0.007,0.0079,0.0022,0.0023,0.0024,0.0025,0,0.0461,0.0469,0.0495,0.0519,0.0554,0.059,0.061,0.0621,0.0637,0.0632,0.0602,0.0503,0.0456,0.0287,0.018,0.0079,0.0065,0.0056,0.0061,0.0071,0.0097,0.01,-0.0002,0,0,0,0,0,0.0449,0.0459,0.0475,0.051,0.055,0.0585,0.0615,0.0634,0.0652,0.0617,0.0617,0.0512,0.0343,0.0271,0.0156,0.0121,0.0042,-0.0019,0.0033,-0.0032,-0.0021,-0.0001,0,0,0,0,0,0,0.0434,0.0457,0.0468,0.0505,0.0539,0.0593,0.0621,0.0633,0.0617,0.0614,0.0527,0.0487,0.0325,0.0421,0.0161,0.0126,0.0141,-0.0092,-0.0095,-0.0038,-0.0028,-0.0019,0.0005,0,0,0,0,0]}]]